Location: Plainartige
(45.6866°N, 1.7993°E)
Time: 19:10:34
(UTC+00:00)

deb r/b Ablestar - Pass Details

Date: 01 October 2021
Orbit: 843 x 997 km, 67.7° (Epoch: 21 October)

Event Time Altitude Azimuth Distance (km) Brightness Sun altitude
Rises 21:02:56 0° 322° (NW) 3,418 ? -35.4°
Reaches altitude 10° 21:05:32 10° 314° (NW) 2,488 ? -35.8°
Enters shadow 21:09:25 32° 276° (W) 1,441 ? -36.3°
